Home   Weather   Lucknow   Past weeks

Flag for India Past Weather in Lucknow, Uttar Pradesh, India — Yesterday and Last 2 Weeks

Now
84 °F

Fog.


Feels Like: 98 °F
Forecast: 79 / 91 °F
Wind: 5 mph from East

Location: Lucknow / Amausi

Current Time: Aug 20, 2017 at 12:27:16 am

Latest Report: Aug 19, 2017 at 11:00 pm


Visibility: 2 mi

Pressure: 29.68 "Hg

Humidity: 89%

Dew Point: 81 °F

Location of LucknowLocation

Past Weather in Lucknow — Graph

°F

Lucknow Temperature Yesterday

Maximum temperature yesterday: 91 °F (at 12:00 pm)
Minimum temperature yesterday: 84 °F (at 12:00 am)
Average temperature yesterday: 87 °F

High & Low Weather Summary for the Past Weeks

 TemperatureHumidityPressure
High99 °F (Aug 17, 3:00 pm)100% (Aug 5, 7:30 am)29.74 "Hg (Aug 5, 7:30 am)
Low81 °F (Aug 7, 6:00 am)57% (Aug 17, 3:00 pm)29.45 "Hg (Aug 11, 4:30 pm)
Average87 °F89%29.56 "Hg
* Reported Aug 4 11:00 pm — Aug 19 11:00 pm, Lucknow. Weather by CustomWeather, © 2017

Note: Actual official high and low records may vary slightly from our data, if they occured in-between our weather recording intervals... More about our weather records

Advertising

Lucknow Weather History for the Previous 24 Hours

Scroll right to see more
 ConditionsComfort  
Time TempWeatherWind HumidityBarometerVisibility
11:00 pm
Sat, Aug 19
84 °FFog.5 mph89%29.68 "Hg2 mi
10:00 pm84 °FFog.5 mph89%29.68 "Hg2 mi
9:00 pm86 °FFog.5 mph84%29.65 "Hg2 mi
8:30 pm86 °FFog.3 mph84%29.65 "Hg2 mi
8:00 pm86 °FFog.5 mph84%29.65 "Hg2 mi
6:00 pm88 °FPartly sunny.6 mph79%29.62 "Hg2 mi
5:30 pm88 °FBroken clouds.6 mph84%29.59 "Hg2 mi
4:30 pm90 °FPartly sunny.8 mph75%29.59 "Hg2 mi
4:00 pm90 °FBroken clouds.6 mph75%29.59 "Hg2 mi
3:00 pm91 °FBroken clouds.6 mph75%29.62 "Hg2 mi
2:30 pm91 °FBroken clouds.6 mph75%29.62 "Hg2 mi
2:00 pm91 °FBroken clouds.6 mph75%29.62 "Hg2 mi
1:30 pm91 °FBroken clouds.5 mph75%29.62 "Hg2 mi
1:00 pm91 °FBroken clouds.6 mph75%29.65 "Hg2 mi
12:30 pm91 °FBroken clouds.7 mph75%29.65 "Hg2 mi
12:00 pm91 °FBroken clouds.7 mph75%29.68 "Hg2 mi
11:00 am90 °FBroken clouds.7 mph79%29.68 "Hg2 mi
10:30 am88 °FFog.6 mph84%29.68 "Hg2 mi
10:00 am88 °FFog.7 mph84%29.68 "Hg2 mi
9:30 am88 °FFog.9 mph84%29.68 "Hg2 mi
9:00 am86 °FFog.7 mph89%29.68 "Hg2 mi
8:30 am86 °FFog.6 mph89%29.68 "Hg2 mi
8:00 am86 °FFog.6 mph89%29.65 "Hg2 mi
7:30 am84 °FFog.3 mph94%29.62 "Hg2 mi
7:00 am84 °FFog.6 mph94%29.62 "Hg2 mi
6:30 am84 °FFog.3 mph94%29.62 "Hg2 mi
6:00 am84 °FFog.3 mph94%29.62 "Hg2 mi
5:30 am84 °FFog.3 mph94%29.59 "Hg2 mi
4:00 am84 °FFog.5 mph94%29.59 "Hg2 mi
3:00 am84 °FFog.7 mph94%29.59 "Hg2 mi
2:00 am84 °FFog.6 mph94%29.59 "Hg2 mi
1:00 am84 °FFog.3 mph94%29.59 "Hg2 mi
12:00 am84 °FFog.3 mph94%29.62 "Hg2 mi
Weather by CustomWeather, © 2017

See weather overviewHow to use our weather pages